Location: Toronto
(43.6672°N, 79.4170°W)
Time: 05:21:42
(UTC-05:00)

ISS - All Passes

Search period start: 27 January 2015 00:00
Search period end: 06 February 2015 00:00
Orbit: 402 x 410 km, 51.6° (Epoch: 27 January)

Date Brightness Start Highest point End Pass type
(mag) Time Alt. Az. Time Alt. Az. Time Alt. Az.
27 Jan - 00:43:29 10° W 00:46:30 32° NNW 00:49:32 10° NE night (unlit)
27 Jan - 02:21:10 10° NW 02:23:42 20° N 02:26:14 10° NE night (unlit)
27 Jan - 03:57:50 10° NW 04:00:54 33° NNE 04:03:57 10° E visible
27 Jan - 05:34:18 10° WNW 05:37:30 45° SW 05:40:40 10° SE visible
27 Jan - 22:15:24 10° SSW 22:18:12 26° SE 22:21:02 10° ENE night (unlit)
27 Jan - 23:51:24 10° W 23:54:35 46° NNW 23:57:48 10° NE night (unlit)
28 Jan - 01:29:05 10° WNW 01:31:40 21° N 01:34:16 10° NE night (unlit)
28 Jan - 03:06:06 10° NW 03:08:56 26° NNE 03:11:47 10° ENE night (unlit)
28 Jan - 04:42:26 10° WNW 04:45:45 83° SSW 04:49:03 10° SE visible
28 Jan - 06:20:44 10° WSW 06:21:49 11° SW 06:22:48 10° SSW visible
28 Jan - 21:24:39 10° S 21:26:33 15° SE 21:28:32 10° E night (unlit)
28 Jan - 22:59:26 10° WSW 23:02:43 75° NNW 23:06:02 10° NE night (unlit)
29 Jan - 00:36:54 10° WNW 00:39:38 23° NNW 00:42:22 10° NE night (unlit)
29 Jan - 02:14:15 10° NW 02:16:55 22° N 02:19:34 10° ENE night (unlit)
29 Jan - 03:50:38 10° NW 03:53:55 58° NNE 03:57:11 10° ESE night (unlit)
29 Jan - 05:27:40 10° W 05:30:12 20° SW 05:32:40 10° S visible
29 Jan - 22:07:40 10° SW 22:10:54 62° SE 22:14:11 10° ENE night (unlit)
29 Jan - 23:44:41 10° W 23:47:37 29° NNW 23:50:33 10° NE night (unlit)
30 Jan - 01:22:18 10° NW 01:24:51 20° N 01:27:24 10° NE night (unlit)
30 Jan - 02:58:52 10° NW 03:01:59 38° NNE 03:05:07 10° E night (unlit)
30 Jan - 04:35:26 10° WNW 04:38:30 35° SW 04:41:33 10° SSE visible
30 Jan - 21:16:10 10° SSW 21:19:08 33° SE 21:22:10 10° ENE night (unlit)
30 Jan - 22:52:30 10° W 22:55:38 39° NNW 22:58:45 10° NE night (unlit)
31 Jan - 00:30:13 10° NW 00:32:46 20° N 00:35:18 10° NE night (unlit)
31 Jan - 02:07:04 10° NW 02:09:59 28° NNE 02:12:55 10° E night (unlit)
31 Jan - 03:43:26 10° WNW 03:46:43 66° SW 03:50:00 10° SE night (unlit)
31 Jan - 20:25:04 10° S 20:27:25 19° SE 20:29:51 10° E night (unlit)
31 Jan - 22:00:25 10° WSW 22:03:40 61° NNW 22:06:57 10° NE night (unlit)
31 Jan - 23:38:00 10° WNW 23:40:40 22° N 23:43:19 10° NE night (unlit)
01 Feb - 01:15:13 10° NW 01:17:56 23° N 01:20:39 10° ENE night (unlit)
01 Feb - 02:51:33 10° NW 02:54:52 71° NNE 02:58:09 10° ESE night (unlit)
01 Feb - 04:28:55 10° W 04:31:03 16° SW 04:33:07 10° S night (unlit)
01 Feb - 19:35:21 10° SE 19:35:44 10° SE 19:36:16 10° ESE visible
01 Feb - 21:08:30 10° SW 21:11:47 79° SSE 21:15:05 10° ENE night (unlit)
01 Feb - 22:45:43 10° WNW 22:48:34 26° NNW 22:51:25 10° NE night (unlit)
02 Feb - 00:23:15 10° NW 00:25:49 20° N 00:28:23 10° NE night (unlit)
02 Feb - 01:59:43 10° NW 02:02:54 44° NNE 02:06:05 10° E night (unlit)
02 Feb - 03:36:25 10° WNW 03:39:19 28° SW 03:42:11 10° SSE night (unlit)
02 Feb - 20:16:49 10° SSW 20:19:55 42° SE 20:23:04 10° ENE visible
02 Feb - 21:53:27 10° W 21:56:30 34° NNW 21:59:34 10° NE night (unlit)
02 Feb - 23:31:09 10° NW 23:33:40 20° N 23:36:12 10° NE night (unlit)
03 Feb - 01:07:52 10° NW 01:10:52 31° NNE 01:13:52 10° E night (unlit)
03 Feb - 02:44:17 10° WNW 02:47:31 51° SW 02:50:43 10° SE night (unlit)
03 Feb - 19:25:28 10° SSW 19:28:08 23° SE 19:30:50 10° E visible
03 Feb - 21:01:16 10° WSW 21:04:28 50° NNW 21:07:42 10° NE night (unlit)
03 Feb - 22:38:54 10° WNW 22:41:31 21° N 22:44:06 10° NE night (unlit)
04 Feb - 00:15:59 10° NW 00:18:46 24° NNE 00:21:34 10° ENE night (unlit)
04 Feb - 01:52:18 10° WNW 01:55:37 88° NE 01:58:55 10° ESE night (unlit)
04 Feb - 03:30:10 10° WSW 03:31:43 13° SW 03:33:11 10° SSW night (unlit)
04 Feb - 18:34:48 10° SSE 18:36:22 13° SE 18:38:02 10° ESE visible
04 Feb - 20:09:13 10° WSW 20:12:29 84° NNW 20:15:47 10° ENE visible
04 Feb - 21:46:36 10° WNW 21:49:21 24° NNW 21:52:07 10° NE night (unlit)
04 Feb - 23:24:00 10° NW 23:26:36 21° N 23:29:14 10° ENE night (unlit)
05 Feb - 01:00:23 10° NW 01:03:38 52° NNE 01:06:52 10° ESE night (unlit)
05 Feb - 02:37:17 10° W 02:39:57 22° SW 02:42:35 10° S night (unlit)
05 Feb - 19:17:22 10° SW 19:20:34 54° SE 19:23:47 10° ENE visible
05 Feb - 20:54:15 10° W 20:57:12 30° NNW 21:00:11 10° NE visible
05 Feb - 22:31:54 10° NW 22:34:24 20° N 22:36:56 10° NE night (unlit)
